Weather in Zernovo

Russia / Bryansk Oblast     52°11′38″N   34°05′17″E
temp.,
°C
wind,
m/s
gust,
m/s
humid.,
%
clouds,
%
prec.,
mm/h
press.,
hPa
HPBL,
m
27 september, mon
mon2700:00+7nnw5119135 0.0 1018523
03:00+7nnw4993100 0.0 1020474
06:00+8nnw51081100 0.0 1020747
09:00+8n5986100 0.0 1021526
12:00+11n587999 0.0 1022806
15:00+11nne357380 0.6 1022733
18:00+10n488120 0.3 1023301
21:00+7nne369451 0.3 1024162
28 september, tue
tue2800:00+8nne3893100 0.0 1024332
03:00+6n3594100 0.0 1024131
06:00+6nne369597 0.0 1025139
09:00+8nne3893100 0.2 1025445
12:00+9ne4785100 0.2 1027584
15:00+9ne4681100 0.4 1028634
18:00+8ne4881100 0.0 1029506
21:00+6ene488899 0.1 1031447
29 september, wed
wed2900:00+7ene4886100 0.0 1032622
03:00+6ene3781100 0.0 1033367
06:00+6ene4765100 0.0 1034494
09:00+6ene47715 0.0 1035415
12:00+10ene455510 0.0 10351103
15:00+11ene34495 0.0 10341217
18:00+8ene33650 0.0 103438
21:00+5ene34745 0.0 103552
30 september, thu
thu3000:00+4e227625 0.0 103526
03:00+3e227828 0.0 103613
06:00+3ene228058 0.0 103616
09:00+6e236895 0.0 1036192
12:00+10ese3354100 0.0 1036762
15:00+11ese224920 0.0 10351027
18:00+9e11620 0.0 103410
21:00+6ese22710 0.0 103513
1 october, fri
fri100:00+5se22730 0.0 103618
03:00+4se22740 0.0 103616
06:00+4se22750 0.0 103613
09:00+7se23640 0.0 1037171
12:00+12sse33500 0.0 1036798
15:00+13s22453 0.0 10351188
18:00+10se22610 0.0 103510
21:00+7se22675 0.0 103518